Weather History for KCLK - March, 2014

Change the Weather History Date:

Tuesday, March 11, 2014

  Actual Average (KCSM) Record (KCSM)
Temperature  
Mean Temperature 60 °F -  
Max Temperature 78 °F 56 °F 81 °F (2014)
Min Temperature 41 °F 34 °F 17 °F (1998)
Degree Days  
Heating Degree Days 5    
Growing Degree Days 10 (Base 50)    
Moisture  
Dew Point 35 °F    
Average Humidity 52    
Maximum Humidity 93    
Minimum Humidity 9    
Precipitation  
Precipitation 0.00 in - - ()
Sea Level Pressure  
Sea Level Pressure 29.67 in    
Wind  
Wind Speed 17 mph (WSW)    
Max Wind Speed 37 mph    
Max Gust Speed 50 mph    
Visibility 10 miles    
Events      
Averages and records for this station are not official NWS values.
T = Trace of Precipitation, MM = Missing Value Source: NWS Daily Summary

Daily Weather History Graph

Daily Weather History Graph

Search for Another Location

Airport or City:

Trip Planner

Search our weather history database for the weather conditions in past years. The results will help you decide how hot, cold, wet, or windy it might be!

Date:

Astronomy

Mar. 11, 2014 Rise Set
Actual Time 7:51 AM CDT 7:39 PM CDT
Civil Twilight 7:26 AM CDT 8:05 PM CDT
Nautical Twilight 6:57 AM CDT 8:34 PM CDT
Astronomical Twilight 6:27 AM CDT 9:04 PM CDT
Moon 3:24 PM CDT (3/11) 4:39 AM CDT (3/11)
Length of Visible Light 12h 38m
Length of Day
11h 47m
Waxing Gibbous, 78% of the Moon is Illuminated
Mar 11
Waxing Gibbous
Mar 16
Full
Mar 23
Last Quarter
Mar 30
New
Apr 7
First Quarter

Hourly Weather History & Observations

Time (CDT) Temp. Windchill Dew Point Humidity Pressure Visibility Wind Dir Wind Speed Gust Speed Precip Events Conditions
12:15 AM 51.8 °F - 32.0 °F 47% 29.73 in 10.0 mi SSE 10.4 mph - N/A   Clear
12:35 AM 51.8 °F - 32.0 °F 47% 29.72 in 10.0 mi SSE 11.5 mph - N/A   Mostly Cloudy
12:55 AM 51.8 °F - 32.0 °F 47% 29.72 in 10.0 mi SSE 11.5 mph - N/A   Mostly Cloudy
1:15 AM 50.0 °F - 33.8 °F 54% 29.71 in 10.0 mi SSE 10.4 mph - N/A   Mostly Cloudy
1:35 AM 50.0 °F - 35.6 °F 58% 29.70 in 10.0 mi SSE 10.4 mph - N/A   Mostly Cloudy
1:55 AM 51.8 °F - 37.4 °F 58% 29.70 in 10.0 mi South 11.5 mph - N/A   Mostly Cloudy
2:15 AM 51.8 °F - 41.0 °F 67% 29.69 in 10.0 mi South 11.5 mph - N/A   Scattered Clouds
2:35 AM 53.6 °F - 42.8 °F 67% 29.69 in 10.0 mi South 11.5 mph - N/A   Scattered Clouds
2:55 AM 53.6 °F - 42.8 °F 67% 29.68 in 10.0 mi SSE 11.5 mph - N/A   Mostly Cloudy
3:15 AM 51.8 °F - 42.8 °F 71% 29.67 in 10.0 mi SSE 11.5 mph - N/A   Mostly Cloudy
3:35 AM 51.8 °F - 42.8 °F 71% 29.66 in 10.0 mi SSE 12.7 mph - N/A   Mostly Cloudy
3:55 AM 51.8 °F - 44.6 °F 76% 29.64 in 10.0 mi SSE 12.7 mph - N/A   Scattered Clouds
4:15 AM 51.8 °F - 44.6 °F 76% 29.63 in 10.0 mi SSE 10.4 mph - N/A   Scattered Clouds
4:35 AM 51.8 °F - 44.6 °F 76% 29.62 in 10.0 mi South 10.4 mph - N/A   Scattered Clouds
4:55 AM 51.8 °F - 44.6 °F 76% 29.62 in 10.0 mi South 10.4 mph - N/A   Scattered Clouds
5:15 AM 50.0 °F - 44.6 °F 82% 29.61 in 10.0 mi SSE 11.5 mph - N/A   Scattered Clouds
5:35 AM 51.8 °F - 44.6 °F 76% 29.60 in 10.0 mi South 13.8 mph - N/A   Scattered Clouds
6:00 AM 50.0 °F - 44.6 °F 82% 29.58 in 10.0 mi South 17.3 mph - N/A   Scattered Clouds
6:15 AM 50.0 °F - 44.6 °F 82% 29.58 in 10.0 mi South 15.0 mph - N/A   Scattered Clouds
6:35 AM 50.0 °F - 44.6 °F 82% 29.57 in 10.0 mi SSE 15.0 mph - N/A   Scattered Clouds
6:55 AM 50.0 °F - 42.8 °F 76% 29.57 in 10.0 mi SSE 12.7 mph - N/A   Clear
7:15 AM 48.2 °F - 42.8 °F 82% 29.56 in 10.0 mi South 13.8 mph - N/A   Clear
7:35 AM 48.2 °F - 44.6 °F 87% 29.55 in 10.0 mi South 15.0 mph - N/A   Clear
7:55 AM 48.2 °F - 44.6 °F 87% 29.56 in 10.0 mi South 10.4 mph - N/A   Clear
8:15 AM 46.4 °F 40.7 °F 44.6 °F 93% 29.57 in 10.0 mi South 12.7 mph - N/A   Clear
8:35 AM 48.2 °F - 44.6 °F 87% 29.56 in 10.0 mi South 15.0 mph - N/A   Clear
8:55 AM 50.0 °F - 44.6 °F 82% 29.56 in 10.0 mi South 15.0 mph - N/A   Clear
9:15 AM 50.0 °F - 44.6 °F 82% 29.54 in 10.0 mi South 18.4 mph - N/A   Clear
9:35 AM 51.8 °F - 44.6 °F 76% 29.54 in 10.0 mi South 17.3 mph - N/A   Clear
9:55 AM 53.6 °F - 44.6 °F 72% 29.53 in 10.0 mi South 17.3 mph - N/A   Clear
10:15 AM 55.4 °F - 44.6 °F 67% 29.53 in 10.0 mi SSW 19.6 mph - N/A   Clear
10:35 AM 59.0 °F - 44.6 °F 59% 29.54 in 10.0 mi SSW 15.0 mph - N/A   Clear
10:55 AM 60.8 °F - 42.8 °F 52% 29.53 in 10.0 mi SSW 15.0 mph - N/A   Clear
11:15 AM 62.6 °F - 41.0 °F 45% 29.53 in 10.0 mi SSW 13.8 mph - N/A   Clear
11:35 AM 62.6 °F - 37.4 °F 39% 29.52 in 10.0 mi SW 13.8 mph - N/A   Clear
11:55 AM 64.4 °F - 33.8 °F 32% 29.52 in 10.0 mi SW 17.3 mph - N/A   Clear
12:15 PM 68.0 °F - 32.0 °F 26% 29.51 in 10.0 mi WSW 17.3 mph 21.9 mph N/A   Clear
12:35 PM 68.0 °F - 30.2 °F 24% 29.52 in 10.0 mi West 15.0 mph 23.0 mph N/A   Clear
12:55 PM 69.8 °F - 26.6 °F 20% 29.52 in 10.0 mi WSW 15.0 mph 20.7 mph N/A   Clear
1:15 PM 71.6 °F - 19.4 °F 14% 29.51 in 10.0 mi West 16.1 mph - N/A   Clear
1:35 PM 73.4 °F - 12.2 °F 10% 29.51 in 10.0 mi West 9.2 mph - N/A   Clear
1:55 PM 77.0 °F - 14.0 °F 9% 29.50 in 10.0 mi West 13.8 mph 19.6 mph N/A   Clear
2:15 PM 77.0 °F - 14.0 °F 9% 29.50 in 10.0 mi WNW 12.7 mph 23.0 mph N/A   Clear
2:35 PM 78.8 °F - 15.8 °F 9% 29.51 in 10.0 mi NW 18.4 mph 24.2 mph N/A   Clear
2:55 PM 78.8 °F - 14.0 °F 9% 29.51 in 10.0 mi NW 19.6 mph 27.6 mph N/A   Clear
3:15 PM 77.0 °F - 15.8 °F 10% 29.53 in 10.0 mi North 25.3 mph 33.4 mph N/A   Clear
3:35 PM 75.2 °F - 19.4 °F 12% 29.55 in 10.0 mi North 24.2 mph 33.4 mph N/A   Clear
3:55 PM 73.4 °F - 26.6 °F 18% 29.57 in 10.0 mi North 32.2 mph 39.1 mph N/A   Clear
4:15 PM 69.8 °F - 32.0 °F 25% 29.59 in 10.0 mi North 29.9 mph 36.8 mph N/A   Clear
4:35 PM 68.0 °F - 32.0 °F 26% 29.61 in 10.0 mi North 27.6 mph 36.8 mph N/A   Clear
4:55 PM 68.0 °F - 32.0 °F 26% 29.62 in 10.0 mi North 31.1 mph 39.1 mph N/A   Clear
5:15 PM 64.4 °F - 30.2 °F 28% 29.64 in 10.0 mi North 25.3 mph 35.7 mph N/A   Clear
5:35 PM 64.4 °F - 30.2 °F 28% 29.66 in 7.0 mi NNW 29.9 mph 40.3 mph N/A   Clear
5:55 PM 62.6 °F - 30.2 °F 30% 29.68 in 7.0 mi NNW 28.8 mph 42.6 mph N/A   Scattered Clouds
6:15 PM 59.0 °F - 30.2 °F 34% 29.71 in 7.0 mi NNW 34.5 mph 42.6 mph N/A   Clear
6:35 PM 55.4 °F - 30.2 °F 38% 29.74 in 7.0 mi NNW 33.4 mph 39.1 mph N/A   Clear
6:55 PM 53.6 °F - 32.0 °F 44% 29.76 in 7.0 mi NNW 35.7 mph 46.0 mph N/A   Clear
7:15 PM 51.8 °F - 32.0 °F 47% 29.79 in 7.0 mi NNW 31.1 mph 39.1 mph N/A   Clear
7:35 PM 50.0 °F - 32.0 °F 50% 29.81 in 10.0 mi North 36.8 mph 49.5 mph N/A   Clear
7:55 PM 48.2 °F - 32.0 °F 54% 29.84 in 10.0 mi North 27.6 mph 38.0 mph N/A   Clear
8:15 PM 46.4 °F 37.2 °F 32.0 °F 57% 29.87 in 10.0 mi North 29.9 mph 36.8 mph N/A   Clear
8:35 PM 46.4 °F 37.0 °F 30.2 °F 53% 29.89 in 10.0 mi North 31.1 mph 41.4 mph N/A   Mostly Cloudy
8:55 PM 46.4 °F 36.7 °F 30.2 °F 53% 29.90 in 10.0 mi North 33.4 mph 41.4 mph N/A   Overcast
9:15 PM 46.4 °F 36.7 °F 32.0 °F 57% 29.92 in 10.0 mi North 33.4 mph 42.6 mph N/A   Overcast
9:35 PM 46.4 °F 37.5 °F 32.0 °F 57% 29.95 in 10.0 mi North 27.6 mph 40.3 mph N/A   Overcast
9:55 PM 46.4 °F 37.4 °F 32.0 °F 57% 29.97 in 10.0 mi North 28.8 mph 42.6 mph N/A   Overcast
10:15 PM 46.4 °F 37.4 °F 32.0 °F 57% 29.97 in 10.0 mi North 28.8 mph 49.5 mph N/A   Overcast
10:35 PM 46.4 °F 36.4 °F 32.0 °F 57% 29.98 in 10.0 mi North 35.7 mph 43.7 mph N/A   Overcast
10:55 PM 44.6 °F 34.7 °F 30.2 °F 57% 30.01 in 10.0 mi North 29.9 mph 40.3 mph N/A   Mostly Cloudy
11:15 PM 44.6 °F 34.1 °F 30.2 °F 57% 30.03 in 10.0 mi North 34.5 mph 43.7 mph N/A   Mostly Cloudy
11:35 PM 42.8 °F 31.4 °F 30.2 °F 61% 30.05 in 10.0 mi North 35.7 mph 42.6 mph N/A   Overcast
11:55 PM 41.0 °F 29.1 °F 28.4 °F 61% 30.07 in 10.0 mi North 34.5 mph 47.2 mph N/A   Scattered Clouds